SL-14 DEB, 45266

Orbit data source: Space-Track

SL-14 DEB, 45266 is space debris in LEO originally from a launch on Thu, 15 Aug 1991 UTC launched from the Plesetsk Missile And Space Complex (PKMTR). Debris objects in space refer to the collection of defunct objects orbiting the Earth. Examples of debris include non-operational satellites, rocket bodies, and fragments generated from explosions, collisions, or faulty payload assembly.

Loading next visibility...
Identifier
45266, 1991-056C
Orbit
LEO
Country
Flag of CISCIS
Related business
Manufacturer
Unknown
Mission
Spacecraft
Bus & Motor
Unknown
Mass
Unknown
Launch date (UTC)
1991-08-15 (34 years ago)
Launch vehicle
Unknown
Launch site
Plesetsk Missile And Space Complex (PKMTR)
Object type
Payload
Rocket body
Debris
Shape & HBR
Unknown shape, 0.5 m
Radar Cross Section
Medium (>0.1 m² and <1 m²)

Expand to show TLE details & history
Last TLE update: 17 hours ago

TLE from 17 hours ago
0 SL-14 DEB
1 45266U 91056C   25350.24389525  .00000004  00000-0 -20625-4 0  9991
2 45266  82.5529 265.3111 0005094 136.7026 223.4498 13.18008857281024
Epoch: 2025-12-16T05:51Z
TLE epoch observation values (Epoch: 2025-12-16T05:51:12.549Z)
Latitude
-0.00003°
Longitude
92.37791°
Altitude
1,197.945 km
Speed
7.254 km/s
True Right ascension
17h 41m 14s
True Declination
0° 00' 00"
Sunlit
Object was in daylight at epoch
Visualization orbit readout
Latitude
Unknown
Longitude
Unknown
Altitude
Unknown
Speed
Unknown
Apparent Right ascension
Unknown
Apparent Declination
Unknown
Sunlit
N/A
Visualization observer readout
Local Sidereal Time
21:38:46
Azimuth
Unknown
Elevation
Unknown
Doppler factor
Unknown
Orbital elements
Apogee altitude
1,193.433 km
Perigee altitude
1,185.723 km
Semi-major axis
7,567.715 km
Eccentricity
0.00051
Inclination
82.5529°
RAAN
265.3111°
Arg. of periapsis
136.7026°
True anomaly
223.40967°
Mean anomaly
223.4498°
Eccentric anomaly
223.42974°
Mean motion
3.29683 °/min
Orbital period
109.2 mins
BSTAR
-0.000020625
Loading maneuver chart data...
Computing Atmospheric mass density...
Loading historical data...
Loading historical data...
Loading historical data...
Loading historical data...
Loading historical data...
Loading historical data...
Loading historical data...

Documentation

Showing up to 5 results
|